This is the latest recevied weather packets stored in our database for station/object K7SKM. If no packets are shown the sender has not sent any weather packets the latest 10 day(s).
| Time | Temp. | Humidity | Pressure | Rain* | Wind** | Luminosity | Snow |
|---|---|---|---|---|---|---|---|
| 1777421520 | 15.56° C | 51% | 1027.6 hPa | 0 mm | - | 96 W/m² | - |
| 1777421216 | 15.56° C | 51% | 1027.6 hPa | 0 mm | - | 104 W/m² | - |
| 1777420913 | 15° C | 52% | 1027.6 hPa | 0 mm | - | 112 W/m² | - |
| 1777420609 | 15.56° C | 52% | 1027.7 hPa | 0 mm | - | 222 W/m² | - |
| 1777420306 | 15° C | 52% | 1027.7 hPa | 0 mm | - | 180 W/m² | - |
| 1777420001 | 15° C | 51% | 1027.7 hPa | 0 mm | - | 146 W/m² | - |
| 1777419698 | 15° C | 52% | 1027.5 hPa | 0 mm | - | 160 W/m² | - |
| 1777419396 | 15° C | 52% | 1027.7 hPa | 0 mm | - | 162 W/m² | - |
| 1777419090 | 15° C | 51% | 1027.6 hPa | 0 mm | - | 153 W/m² | - |
| 1777418789 | 15.56° C | 50% | 1027.6 hPa | 0 mm | - | 166 W/m² | - |
| 1777418487 | 15.56° C | 50% | 1027.4 hPa | 0 mm | - | 168 W/m² | - |
| 1777418182 | 15° C | 51% | 1027.7 hPa | 0 mm | - | 182 W/m² | - |
| 1777417878 | 15° C | 51% | 1027.7 hPa | 0 mm | - | 152 W/m² | - |
| 1777417575 | 15° C | 52% | 1027.6 hPa | 0 mm | - | 148 W/m² | - |
| 1777417270 | 15° C | 49% | 1027.6 hPa | 0 mm | - | 159 W/m² | - |
| 1777416967 | 15° C | 51% | 1027.7 hPa | 0 mm | - | 171 W/m² | - |
| 1777416667 | 15.56° C | 53% | 1027.5 hPa | 0 mm | - | 167 W/m² | - |
| 1777416364 | 15.56° C | 52% | 1027.5 hPa | 0 mm | - | 291 W/m² | - |
| 1777416063 | 15.56° C | 52% | 1027.5 hPa | 0 mm | - | 380 W/m² | - |
| 1777415758 | 15° C | 53% | 1027.5 hPa | 0 mm | - | 185 W/m² | - |
| 1777415455 | 15° C | 53% | 1027.8 hPa | 0 mm | - | 189 W/m² | - |
| 1777415150 | 15.56° C | 53% | 1027.9 hPa | 0 mm | - | 260 W/m² | - |
| 1777414845 | 15° C | 55% | 1027.6 hPa | 0 mm | - | 211 W/m² | - |
| 1777414545 | 15° C | 55% | 1027.9 hPa | 0 mm | - | 237 W/m² | - |
| 1777414239 | 15° C | 54% | 1027.6 hPa | 0 mm | - | 339 W/m² | - |
* Rain latest hour (hover to see other rain measurements)
** Current wind speed in m/s (hover to see current wind gust speed)